| time (UTC) | temp F | wind direction | speed MPH | gust MPH | rain 1hr in | rain 24hr in | rain mn in | humidity % | barometer mb |
| 20260507012535 | 41 | 0 | 0.0 | 2.0 | 0.00 | 0.22 | 0.00 | 75 | 1011.8 |
| 20260507012034 | 41 | 0 | 0.0 | 2.0 | 0.00 | 0.22 | 0.00 | 75 | 1011.8 |
| 20260507011545 | 41 | 131 | 0.0 | 2.0 | 0.00 | 0.22 | 0.00 | 74 | 1011.8 |
| 20260507011032 | 41 | 0 | 0.0 | 2.0 | 0.00 | 0.22 | 0.00 | 75 | 1011.7 |
| 20260507010533 | 41 | 45 | 0.0 | 2.0 | 0.00 | 0.22 | 0.00 | 75 | 1011.7 |
| 20260507010046 | 41 | 45 | 0.0 | 2.0 | 0.00 | 0.22 | 0.00 | 75 | 1011.8 |
| 20260507005535 | 41 | 45 | 0.0 | 2.0 | 0.00 | 0.22 | 0.00 | 74 | 1011.8 |
| 20260507005037 | 41 | 0 | 0.0 | 2.0 | 0.00 | 0.22 | 0.00 | 73 | 1011.9 |
| 20260507004540 | 41 | 0 | 0.0 | 3.0 | 0.00 | 0.22 | 0.00 | 73 | 1011.8 |
| 20260507004036 | 42 | 45 | 0.0 | 3.0 | 0.00 | 0.22 | 0.00 | 74 | 1011.9 |
| 20260507003535 | 42 | 45 | 0.0 | 2.0 | 0.00 | 0.22 | 0.00 | 74 | 1011.9 |
| 20260507003050 | 42 | 45 | 0.0 | 2.0 | 0.00 | 0.22 | 0.00 | 73 | 1011.9 |
| 20260507002536 | 43 | 45 | 0.0 | 3.0 | 0.00 | 0.22 | 0.00 | 73 | 1011.9 |
| 20260507002036 | 43 | 0 | 0.0 | 3.0 | 0.00 | 0.22 | 0.00 | 73 | 1011.9 |
| 20260507001544 | 42 | 44 | 0.0 | 3.0 | 0.00 | 0.22 | 0.00 | 73 | 1011.9 |
| 20260507001035 | 42 | 0 | 0.0 | 3.0 | 0.00 | 0.22 | 0.00 | 73 | 1011.9 |
| 20260507000538 | 42 | 63 | 0.0 | 4.0 | 0.00 | 0.22 | 0.00 | 73 | 1011.9 |
| 20260507000054 | 42 | 39 | 1.0 | 4.0 | 0.00 | 0.22 | 0.00 | 72 | 1011.9 |
| 20260506235536 | 42 | 41 | 0.0 | 3.0 | 0.00 | 0.22 | 0.00 | 72 | 1011.9 |
| 20260506235034 | 43 | 128 | 0.0 | 2.0 | 0.00 | 0.22 | 0.00 | 71 | 1012.0 |
| 20260506234550 | 43 | 0 | 0.0 | 3.0 | 0.00 | 0.22 | 0.00 | 72 | 1012.0 |
| 20260506234035 | 43 | 128 | 0.0 | 3.0 | 0.00 | 0.22 | 0.00 | 72 | 1011.9 |
| 20260506233535 | 43 | 128 | 0.0 | 2.0 | 0.00 | 0.22 | 0.00 | 73 | 1011.9 |
| 20260506233048 | 43 | 0 | 0.0 | 3.0 | 0.00 | 0.22 | 0.00 | 73 | 1011.9 |
| 20260506232536 | 43 | 0 | 0.0 | 3.0 | 0.00 | 0.22 | 0.00 | 74 | 1011.8 |
| 20260506232036 | 43 | 0 | 0.0 | 3.0 | 0.00 | 0.22 | 0.00 | 73 | 1011.9 |
| 20260506231546 | 43 | 128 | 0.0 | 3.0 | 0.00 | 0.22 | 0.00 | 74 | 1011.9 |
| 20260506231036 | 43 | 0 | 0.0 | 2.0 | 0.00 | 0.22 | 0.00 | 74 | 1012.0 |
| 20260506230534 | 43 | 128 | 0.0 | 2.0 | 0.00 | 0.22 | 0.00 | 74 | 1012.0 |
| 20260506230050 | 43 | 0 | 0.0 | 2.0 | 0.00 | 0.22 | 0.00 | 74 | 1012.0 |
| 20260506225536 | 43 | 128 | 0.0 | 2.0 | 0.00 | 0.22 | 0.00 | 74 | 1012.0 |
| 20260506225036 | 43 | 0 | 0.0 | 2.0 | 0.00 | 0.22 | 0.00 | 74 | 1012.0 |
| 20260506224549 | 43 | 0 | 0.0 | 2.0 | 0.00 | 0.22 | 0.00 | 75 | 1012.0 |
| 20260506224035 | 43 | 128 | 0.0 | 2.0 | 0.00 | 0.22 | 0.00 | 74 | 1012.0 |
| 20260506223537 | 43 | 128 | 0.0 | 2.0 | 0.00 | 0.22 | 0.00 | 74 | 1012.0 |
| 20260506223048 | 43 | 0 | 0.0 | 2.0 | 0.00 | 0.22 | 0.00 | 73 | 1012.0 |
| 20260506222535 | 44 | 128 | 0.0 | 3.0 | 0.00 | 0.22 | 0.00 | 73 | 1012.0 |
| 20260506222041 | 44 | 0 | 0.0 | 3.0 | 0.00 | 0.22 | 0.00 | 73 | 1012.0 |
| 20260506221547 | 44 | 128 | 1.0 | 3.0 | 0.00 | 0.22 | 0.00 | 72 | 1012.0 |
| 20260506221036 | 43 | 0 | 0.0 | 3.0 | 0.00 | 0.22 | 0.00 | 71 | 1011.9 |
| 20260506220536 | 43 | 0 | 0.0 | 2.0 | 0.00 | 0.22 | 0.00 | 73 | 1011.9 |
| 20260506220041 | 43 | 43 | 0.0 | 3.0 | 0.00 | 0.22 | 0.00 | 73 | 1011.9 |
| 20260506215536 | 43 | 0 | 1.0 | 3.0 | 0.00 | 0.22 | 0.22 | 73 | 1011.9 |
| 20260506215037 | 44 | 58 | 0.0 | 2.0 | 0.00 | 0.22 | 0.22 | 74 | 1011.8 |
| 20260506214544 | 44 | 0 | 0.0 | 2.0 | 0.00 | 0.22 | 0.22 | 74 | 1011.7 |
| 20260506214035 | 44 | 58 | 0.0 | 2.0 | 0.00 | 0.22 | 0.22 | 73 | 1011.8 |
| 20260506213538 | 44 | 0 | 0.0 | 2.0 | 0.00 | 0.22 | 0.22 | 73 | 1011.7 |
| 20260506213043 | 44 | 0 | 0.0 | 2.0 | 0.00 | 0.22 | 0.22 | 74 | 1011.7 |
| 20260506212536 | 44 | 0 | 0.0 | 3.0 | 0.00 | 0.22 | 0.22 | 74 | 1011.6 |
| 20260506212037 | 44 | 0 | 0.0 | 3.0 | 0.00 | 0.22 | 0.22 | 75 | 1011.5 |
| 20260506211541 | 44 | 58 | 1.0 | 3.0 | 0.00 | 0.22 | 0.22 | 75 | 1011.7 |
| 20260506211036 | 44 | 58 | 0.0 | 2.0 | 0.00 | 0.22 | 0.22 | 75 | 1011.6 |
| 20260506210537 | 44 | 58 | 0.0 | 2.0 | 0.00 | 0.22 | 0.22 | 75 | 1011.5 |
| 20260506210050 | 44 | 0 | 0.0 | 2.0 | 0.00 | 0.22 | 0.22 | 75 | 1011.4 |
| 20260506205536 | 45 | 0 | 0.0 | 2.0 | 0.00 | 0.22 | 0.22 | 74 | 1011.3 |
| 20260506205036 | 45 | 58 | 0.0 | 2.0 | 0.00 | 0.22 | 0.22 | 73 | 1011.3 |
| 20260506204554 | 45 | 0 | 0.0 | 2.0 | 0.00 | 0.22 | 0.22 | 72 | 1011.3 |
| 20260506204040 | 45 | 0 | 0.0 | 2.0 | 0.00 | 0.22 | 0.22 | 72 | 1011.2 |
| 20260506203536 | 45 | 58 | 0.0 | 3.0 | 0.00 | 0.22 | 0.22 | 73 | 1011.3 |
| 20260506203044 | 45 | 58 | 1.0 | 3.0 | 0.00 | 0.22 | 0.22 | 73 | 1011.1 |
| 20260506202536 | 45 | 58 | 0.0 | 2.0 | 0.00 | 0.22 | 0.22 | 73 | 1011.0 |
| 20260506202035 | 45 | 58 | 0.0 | 2.0 | 0.00 | 0.22 | 0.22 | 73 | 1011.0 |
| 20260506201553 | 46 | 0 | 0.0 | 4.0 | 0.00 | 0.22 | 0.22 | 72 | 1011.0 |
| 20260506201040 | 46 | 0 | 0.0 | 4.0 | 0.00 | 0.22 | 0.22 | 71 | 1011.0 |
| 20260506200534 | 46 | 58 | 0.0 | 4.0 | 0.00 | 0.22 | 0.22 | 71 | 1010.9 |
| 20260506200055 | 46 | 126 | 1.0 | 3.0 | 0.00 | 0.22 | 0.22 | 71 | 1010.8 |
| 20260506195536 | 46 | 137 | 0.0 | 3.0 | 0.00 | 0.22 | 0.22 | 71 | 1010.6 |
| 20260506195036 | 46 | 0 | 0.0 | 5.0 | 0.00 | 0.22 | 0.22 | 69 | 1010.6 |
| 20260506194558 | 46 | 0 | 0.0 | 5.0 | 0.00 | 0.22 | 0.22 | 69 | 1010.5 |
| 20260506194037 | 46 | 82 | 1.0 | 5.0 | 0.00 | 0.22 | 0.22 | 70 | 1010.3 |
| 20260506193539 | 46 | 5 | 1.0 | 5.0 | 0.00 | 0.22 | 0.22 | 71 | 1010.3 |
| 20260506193046 | 46 | 0 | 0.0 | 3.0 | 0.00 | 0.22 | 0.22 | 71 | 1010.3 |
| 20260506192534 | 46 | 77 | 1.0 | 3.0 | 0.00 | 0.22 | 0.22 | 72 | 1010.2 |
| 20260506192038 | 46 | 22 | 0.0 | 2.0 | 0.00 | 0.22 | 0.22 | 72 | 1010.0 |
| 20260506191545 | 46 | 22 | 0.0 | 5.0 | 0.00 | 0.22 | 0.22 | 72 | 1009.9 |
| 20260506191035 | 46 | 0 | 0.0 | 5.0 | 0.00 | 0.22 | 0.22 | 71 | 1009.8 |
| 20260506190538 | 46 | 34 | 1.0 | 5.0 | 0.00 | 0.22 | 0.22 | 74 | 1009.6 |
| 20260506190042 | 47 | 29 | 1.0 | 5.0 | 0.00 | 0.22 | 0.22 | 72 | 1009.6 |
| 20260506185534 | 47 | 31 | 0.0 | 5.0 | 0.00 | 0.22 | 0.22 | 71 | 1009.5 |
| 20260506185036 | 47 | 19 | 1.0 | 5.0 | 0.00 | 0.22 | 0.22 | 70 | 1009.4 |
| 20260506184550 | 48 | 108 | 1.0 | 3.0 | 0.00 | 0.22 | 0.22 | 71 | 1009.5 |
| 20260506184036 | 49 | 0 | 0.0 | 2.0 | 0.00 | 0.22 | 0.22 | 68 | 1009.5 |
| 20260506183535 | 50 | 146 | 0.0 | 2.0 | 0.00 | 0.22 | 0.22 | 66 | 1009.5 |
| 20260506183057 | 50 | 0 | 0.0 | 2.0 | 0.00 | 0.22 | 0.22 | 64 | 1009.3 |
| 20260506182534 | 50 | 146 | 0.0 | 3.0 | 0.00 | 0.22 | 0.22 | 63 | 1009.2 |
| 20260506182035 | 50 | 146 | 0.0 | 7.0 | 0.00 | 0.22 | 0.22 | 63 | 1009.2 |
| 20260506181555 | 50 | 218 | 0.0 | 7.0 | 0.00 | 0.22 | 0.22 | 63 | 1009.2 |
| 20260506181036 | 50 | 194 | 2.0 | 7.0 | 0.00 | 0.22 | 0.22 | 62 | 1009.1 |
| 20260506180537 | 51 | 136 | 0.0 | 3.0 | 0.00 | 0.22 | 0.22 | 62 | 1009.2 |
| 20260506180045 | 51 | 0 | 0.0 | 2.0 | 0.00 | 0.22 | 0.22 | 64 | 1009.0 |
| 20260506175537 | 51 | 144 | 0.0 | 5.0 | 0.00 | 0.22 | 0.22 | 62 | 1009.0 |
| 20260506175034 | 51 | 0 | 0.0 | 5.0 | 0.00 | 0.22 | 0.22 | 64 | 1009.0 |
| 20260506174542 | 51 | 166 | 2.0 | 5.0 | 0.00 | 0.22 | 0.22 | 65 | 1009.1 |
| 20260506174035 | 51 | 0 | 1.0 | 5.0 | 0.00 | 0.22 | 0.22 | 62 | 1009.1 |
| 20260506173535 | 51 | 323 | 1.0 | 9.0 | 0.00 | 0.22 | 0.22 | 61 | 1008.9 |
| 20260506173104 | 52 | 0 | 1.0 | 9.0 | 0.00 | 0.22 | 0.22 | 62 | 1008.8 |
| 20260506172535 | 52 | 249 | 1.0 | 6.0 | 0.00 | 0.22 | 0.22 | 62 | 1008.6 |
| 20260506172034 | 52 | 59 | 1.0 | 6.0 | 0.00 | 0.22 | 0.22 | 64 | 1008.6 |
| 20260506171549 | 52 | 0 | 0.0 | 4.0 | 0.00 | 0.22 | 0.22 | 65 | 1008.6 |
| 20260506171034 | 52 | 0 | 0.0 | 4.0 | 0.00 | 0.22 | 0.22 | 67 | 1008.4 |
| 20260506170536 | 52 | 44 | 1.0 | 4.0 | 0.00 | 0.22 | 0.22 | 64 | 1008.2 |
| 20260506170050 | 52 | 19 | 0.0 | 3.0 | 0.00 | 0.22 | 0.22 | 70 | 1008.3 |
| 20260506165538 | 53 | 321 | 0.0 | 3.0 | 0.00 | 0.22 | 0.22 | 68 | 1008.2 |
| 20260506165035 | 53 | 0 | 0.0 | 2.0 | 0.00 | 0.22 | 0.22 | 67 | 1008.2 |
| 20260506164549 | 53 | 0 | 0.0 | 3.0 | 0.00 | 0.22 | 0.22 | 64 | 1008.1 |
| 20260506164034 | 53 | 0 | 0.0 | 4.0 | 0.00 | 0.22 | 0.22 | 65 | 1008.2 |
| 20260506163535 | 53 | 0 | 1.0 | 4.0 | 0.00 | 0.22 | 0.22 | 65 | 1008.1 |
| 20260506163042 | 53 | 272 | 0.0 | 4.0 | 0.00 | 0.22 | 0.22 | 64 | 1008.2 |
| 20260506162534 | 54 | 200 | 1.0 | 4.0 | 0.00 | 0.22 | 0.22 | 64 | 1008.1 |
| 20260506162035 | 54 | 226 | 1.0 | 11.0 | 0.00 | 0.22 | 0.22 | 63 | 1008.1 |
| 20260506161602 | 54 | 317 | 1.0 | 11.0 | 0.00 | 0.22 | 0.22 | 61 | 1007.9 |
| 20260506161034 | 54 | 50 | 3.0 | 11.0 | 0.00 | 0.22 | 0.22 | 61 | 1007.8 |
| 20260506160535 | 55 | 0 | 1.0 | 6.0 | 0.00 | 0.22 | 0.22 | 63 | 1007.9 |
| 20260506160046 | 56 | 135 | 1.0 | 8.0 | 0.00 | 0.22 | 0.22 | 62 | 1008.0 |
| 20260506155534 | 57 | 205 | 2.0 | 10.0 | 0.00 | 0.22 | 0.22 | 59 | 1008.0 |
| 20260506155035 | 58 | 175 | 2.0 | 10.0 | 0.00 | 0.22 | 0.22 | 61 | 1007.9 |
| 20260506154554 | 58 | 165 | 2.0 | 8.0 | 0.00 | 0.22 | 0.22 | 60 | 1007.9 |
| 20260506154035 | 58 | 182 | 2.0 | 7.0 | 0.00 | 0.22 | 0.22 | 56 | 1008.0 |
| 20260506153535 | 58 | 248 | 3.0 | 7.0 | 0.00 | 0.22 | 0.22 | 51 | 1008.2 |
| 20260506153051 | 58 | 0 | 1.0 | 4.0 | 0.00 | 0.22 | 0.22 | 51 | 1008.0 |
| 20260506152535 | 57 | 159 | 1.0 | 5.0 | 0.00 | 0.22 | 0.22 | 56 | 1007.9 |
| 20260506152038 | 56 | 0 | 1.0 | 8.0 | 0.00 | 0.22 | 0.22 | 59 | 1007.8 |
| 20260506151604 | 56 | 42 | 3.0 | 8.0 | 0.00 | 0.22 | 0.22 | 59 | 1007.8 |
| 20260506151034 | 56 | 115 | 1.0 | 6.0 | 0.00 | 0.22 | 0.22 | 60 | 1007.8 |
| 20260506150534 | 56 | 129 | 2.0 | 6.0 | 0.00 | 0.22 | 0.22 | 58 | 1007.7 |
| 20260506150049 | 56 | 171 | 1.0 | 13.0 | 0.00 | 0.22 | 0.22 | 56 | 1007.8 |
| 20260506145535 | 56 | 56 | 3.0 | 13.0 | 0.00 | 0.22 | 0.22 | 58 | 1007.8 |
| 20260506145036 | 56 | 102 | 1.0 | 10.0 | 0.00 | 0.22 | 0.22 | 62 | 1007.8 |
| 20260506144541 | 56 | 322 | 4.0 | 10.0 | 0.00 | 0.22 | 0.22 | 63 | 1007.9 |
| 20260506144041 | 55 | 315 | 2.0 | 9.0 | 0.00 | 0.22 | 0.22 | 62 | 1008.0 |
| 20260506143535 | 54 | 319 | 3.0 | 10.0 | 0.00 | 0.22 | 0.22 | 62 | 1007.9 |
| 20260506143052 | 54 | 350 | 3.0 | 10.0 | 0.00 | 0.22 | 0.22 | 60 | 1008.0 |
| 20260506142536 | 54 | 26 | 3.0 | 9.0 | 0.00 | 0.22 | 0.22 | 64 | 1007.9 |
| 20260506142034 | 55 | 268 | 1.0 | 5.0 | 0.00 | 0.22 | 0.22 | 65 | 1008.1 |
| 20260506141542 | 55 | 0 | 2.0 | 5.0 | 0.00 | 0.22 | 0.22 | 64 | 1008.0 |
| 20260506141036 | 56 | 148 | 1.0 | 5.0 | 0.00 | 0.22 | 0.22 | 62 | 1008.0 |
| 20260506140538 | 56 | 180 | 2.0 | 6.0 | 0.00 | 0.22 | 0.22 | 61 | 1007.8 |
| 20260506140043 | 56 | 0 | 1.0 | 6.0 | 0.00 | 0.22 | 0.22 | 64 | 1007.7 |
| 20260506135536 | 56 | 0 | 2.0 | 6.0 | 0.00 | 0.22 | 0.22 | 65 | 1007.6 |
| 20260506135035 | 56 | 191 | 1.0 | 5.0 | 0.00 | 0.22 | 0.22 | 69 | 1007.6 |
| 20260506134544 | 56 | 218 | 1.0 | 5.0 | 0.00 | 0.22 | 0.22 | 65 | 1007.6 |
| 20260506134035 | 56 | 148 | 2.0 | 6.0 | 0.00 | 0.22 | 0.22 | 70 | 1007.6 |
| 20260506133536 | 56 | 207 | 2.0 | 6.0 | 0.00 | 0.22 | 0.22 | 69 | 1007.7 |
| 20260506133049 | 55 | 173 | 2.0 | 7.0 | 0.00 | 0.22 | 0.22 | 73 | 1007.7 |
| 20260506132535 | 55 | 123 | 2.0 | 7.0 | 0.00 | 0.22 | 0.22 | 75 | 1007.7 |
| 20260506132038 | 55 | 148 | 2.0 | 9.0 | 0.00 | 0.22 | 0.22 | 73 | 1007.8 |
| 20260506131544 | 54 | 203 | 2.0 | 9.0 | 0.00 | 0.22 | 0.22 | 79 | 1007.8 |
| 20260506131039 | 53 | 242 | 1.0 | 8.0 | 0.00 | 0.22 | 0.22 | 79 | 1007.9 |
| 20260506130534 | 53 | 158 | 2.0 | 8.0 | 0.00 | 0.22 | 0.22 | 80 | 1007.9 |
| 20260506130053 | 52 | 150 | 3.0 | 8.0 | 0.00 | 0.22 | 0.22 | 78 | 1008.0 |
| 20260506125536 | 52 | 145 | 3.0 | 6.0 | 0.00 | 0.22 | 0.22 | 81 | 1008.0 |
| 20260506125034 | 52 | 210 | 1.0 | 7.0 | 0.00 | 0.22 | 0.22 | 84 | 1008.1 |
| 20260506124550 | 51 | 191 | 2.0 | 7.0 | 0.00 | 0.22 | 0.22 | 84 | 1008.1 |
| 20260506124035 | 51 | 126 | 2.0 | 7.0 | 0.00 | 0.22 | 0.22 | 84 | 1008.1 |
| 20260506123535 | 51 | 149 | 2.0 | 7.0 | 0.00 | 0.22 | 0.22 | 84 | 1008.1 |
| 20260506123049 | 51 | 167 | 2.0 | 7.0 | 0.00 | 0.22 | 0.22 | 85 | 1008.2 |
| 20260506122536 | 51 | 202 | 3.0 | 7.0 | 0.00 | 0.22 | 0.22 | 87 | 1008.2 |
| 20260506122035 | 51 | 178 | 2.0 | 6.0 | 0.00 | 0.22 | 0.22 | 90 | 1008.1 |
| 20260506121547 | 51 | 0 | 2.0 | 5.0 | 0.00 | 0.22 | 0.22 | 90 | 1008.1 |
| 20260506121035 | 51 | 153 | 1.0 | 5.0 | 0.00 | 0.22 | 0.22 | 92 | 1008.2 |
| 20260506120535 | 50 | 153 | 2.0 | 6.0 | 0.00 | 0.22 | 0.22 | 90 | 1008.2 |
| 20260506120050 | 49 | 0 | 2.0 | 7.0 | 0.00 | 0.22 | 0.22 | 91 | 1008.2 |
| 20260506115534 | 49 | 200 | 2.0 | 8.0 | 0.01 | 0.22 | 0.22 | 91 | 1008.2 |
| 20260506115034 | 49 | 280 | 3.0 | 8.0 | 0.01 | 0.22 | 0.22 | 92 | 1008.2 |
| 20260506114546 | 48 | 202 | 2.0 | 7.0 | 0.02 | 0.22 | 0.22 | 92 | 1008.2 |
| 20260506114035 | 47 | 152 | 1.0 | 5.0 | 0.03 | 0.22 | 0.22 | 93 | 1008.2 |
| 20260506113535 | 46 | 194 | 1.0 | 5.0 | 0.03 | 0.22 | 0.22 | 93 | 1008.2 |
| 20260506113056 | 45 | 183 | 1.0 | 5.0 | 0.03 | 0.22 | 0.22 | 93 | 1008.3 |
| 20260506112535 | 45 | 200 | 0.0 | 5.0 | 0.04 | 0.22 | 0.22 | 93 | 1008.3 |
| 20260506112034 | 45 | 219 | 1.0 | 4.0 | 0.05 | 0.22 | 0.22 | 92 | 1008.3 |
| 20260506111540 | 45 | 128 | 0.0 | 4.0 | 0.11 | 0.22 | 0.22 | 92 | 1008.3 |
| 20260506111037 | 45 | 0 | 0.0 | 4.0 | 0.13 | 0.22 | 0.22 | 91 | 1008.1 |
| 20260506110535 | 46 | 0 | 1.0 | 3.0 | 0.12 | 0.21 | 0.21 | 91 | 1008.2 |
| 20260506110056 | 45 | 0 | 0.0 | 4.0 | 0.12 | 0.21 | 0.21 | 90 | 1008.5 |
| 20260506105536 | 46 | 0 | 1.0 | 4.0 | 0.11 | 0.20 | 0.20 | 89 | 1008.5 |
| 20260506105035 | 45 | 0 | 0.0 | 9.0 | 0.11 | 0.19 | 0.19 | 85 | 1008.5 |
| 20260506104600 | 45 | 0 | 1.0 | 9.0 | 0.11 | 0.19 | 0.19 | 85 | 1008.4 |
| 20260506104036 | 45 | 306 | 3.0 | 9.0 | 0.10 | 0.18 | 0.18 | 86 | 1008.3 |
| 20260506103535 | 45 | 50 | 1.0 | 6.0 | 0.10 | 0.18 | 0.18 | 89 | 1008.3 |
| 20260506103051 | 46 | 255 | 1.0 | 7.0 | 0.09 | 0.18 | 0.18 | 89 | 1008.5 |
| 20260506102535 | 46 | 44 | 1.0 | 8.0 | 0.08 | 0.17 | 0.17 | 87 | 1008.5 |
| 20260506102035 | 47 | 225 | 2.0 | 11.0 | 0.07 | 0.16 | 0.16 | 86 | 1008.6 |
| 20260506101555 | 48 | 316 | 2.0 | 11.0 | 0.01 | 0.10 | 0.10 | 85 | 1008.8 |
| 20260506101038 | 49 | 131 | 2.0 | 7.0 | 0.00 | 0.08 | 0.08 | 85 | 1008.3 |
| 20260506100535 | 50 | 131 | 1.0 | 6.0 | 0.00 | 0.08 | 0.08 | 87 | 1008.0 |
| 20260506100055 | 50 | 234 | 1.0 | 8.0 | 0.00 | 0.08 | 0.08 | 86 | 1007.9 |
| 20260506095538 | 50 | 215 | 2.0 | 8.0 | 0.00 | 0.08 | 0.08 | 86 | 1007.7 |
| 20260506095036 | 50 | 144 | 4.0 | 8.0 | 0.00 | 0.08 | 0.08 | 87 | 1007.6 |
| 20260506094552 | 49 | 222 | 1.0 | 7.0 | 0.00 | 0.08 | 0.08 | 90 | 1007.4 |
| 20260506094037 | 49 | 180 | 2.0 | 7.0 | 0.00 | 0.08 | 0.08 | 89 | 1007.3 |
| 20260506093538 | 49 | 155 | 3.0 | 7.0 | 0.00 | 0.08 | 0.08 | 91 | 1007.4 |
| 20260506093047 | 49 | 211 | 2.0 | 8.0 | 0.00 | 0.08 | 0.08 | 92 | 1007.3 |
| 20260506092535 | 49 | 167 | 2.0 | 8.0 | 0.00 | 0.08 | 0.08 | 92 | 1007.2 |
| 20260506092035 | 48 | 212 | 1.0 | 8.0 | 0.00 | 0.08 | 0.08 | 93 | 1007.3 |
| 20260506091542 | 48 | 147 | 2.0 | 7.0 | 0.00 | 0.08 | 0.08 | 93 | 1007.2 |
| 20260506091038 | 47 | 237 | 2.0 | 7.0 | 0.00 | 0.08 | 0.08 | 93 | 1007.2 |
| 20260506090535 | 47 | 188 | 1.0 | 5.0 | 0.00 | 0.08 | 0.08 | 93 | 1007.2 |
| 20260506090043 | 47 | 0 | 1.0 | 4.0 | 0.00 | 0.08 | 0.08 | 93 | 1007.2 |
| 20260506085535 | 47 | 0 | 1.0 | 5.0 | 0.00 | 0.08 | 0.08 | 94 | 1007.2 |
| 20260506085035 | 47 | 200 | 1.0 | 7.0 | 0.00 | 0.08 | 0.08 | 94 | 1007.3 |
| 20260506084549 | 47 | 182 | 2.0 | 7.0 | 0.00 | 0.08 | 0.08 | 94 | 1007.3 |
| 20260506084035 | 47 | 163 | 2.0 | 7.0 | 0.00 | 0.08 | 0.08 | 94 | 1007.3 |
| 20260506083537 | 47 | 206 | 1.0 | 7.0 | 0.00 | 0.08 | 0.08 | 94 | 1007.3 |
| 20260506083045 | 47 | 165 | 2.0 | 10.0 | 0.00 | 0.08 | 0.08 | 94 | 1007.3 |
| 20260506082539 | 47 | 216 | 2.0 | 10.0 | 0.00 | 0.08 | 0.08 | 95 | 1007.3 |
| 20260506082035 | 47 | 175 | 2.0 | 7.0 | 0.00 | 0.08 | 0.08 | 95 | 1007.3 |
| 20260506081546 | 47 | 184 | 1.0 | 6.0 | 0.00 | 0.08 | 0.08 | 95 | 1007.3 |
| 20260506081035 | 46 | 184 | 0.0 | 6.0 | 0.00 | 0.08 | 0.08 | 95 | 1007.2 |
| 20260506080535 | 46 | 216 | 0.0 | 3.0 | 0.00 | 0.08 | 0.08 | 95 | 1007.1 |
| 20260506073045 | 45 | 168 | 1.0 | 6.0 | 0.00 | 0.08 | 0.07 | 93 | 1006.8 |
| 20260506072535 | 46 | 171 | 1.0 | 5.0 | 0.00 | 0.08 | 0.07 | 93 | 1006.7 |
| 20260506072035 | 46 | 150 | 0.0 | 4.0 | 0.00 | 0.08 | 0.07 | 93 | 1006.7 |
| 20260506071600 | 46 | 170 | 1.0 | 4.0 | 0.00 | 0.08 | 0.07 | 92 | 1006.8 |
| 20260506071035 | 46 | 0 | 0.0 | 4.0 | 0.00 | 0.08 | 0.07 | 92 | 1006.7 |
| 20260506070535 | 46 | 183 | 0.0 | 4.0 | 0.00 | 0.08 | 0.07 | 92 | 1006.7 |
| 20260506062034 | 45 | 0 | 0.0 | 2.0 | 0.04 | 0.08 | 0.07 | 90 | 1006.8 |
| 20260506061548 | 45 | 0 | 0.0 | 5.0 | 0.04 | 0.08 | 0.07 | 90 | 1006.9 |
| 20260506061036 | 45 | 171 | 1.0 | 5.0 | 0.05 | 0.08 | 0.07 | 91 | 1006.9 |
| 20260506060538 | 45 | 170 | 1.0 | 6.0 | 0.06 | 0.08 | 0.07 | 92 | 1006.8 |
| 20260506051036 | 45 | 59 | 0.0 | 3.0 | 0.02 | 0.10 | 0.02 | 95 | 1007.3 |
| 20260506050535 | 45 | 0 | 0.0 | 4.0 | 0.01 | 0.09 | 0.01 | 95 | 1007.2 |
| 20260506045035 | 45 | 0 | 0.0 | 3.0 | 0.01 | 0.12 | 0.01 | 95 | 1007.3 |
| 20260506044545 | 45 | 160 | 0.0 | 2.0 | 0.00 | 0.11 | 0.00 | 95 | 1007.4 |
| 20260506044035 | 45 | 0 | 0.0 | 2.0 | 0.00 | 0.11 | 0.00 | 95 | 1007.4 |
| 20260506043540 | 45 | 160 | 0.0 | 1.0 | 0.00 | 0.11 | 0.00 | 95 | 1007.4 |
| 20260506043047 | 45 | 0 | 0.0 | 4.0 | 0.00 | 0.11 | 0.00 | 95 | 1007.4 |
| 20260506042536 | 45 | 0 | 0.0 | 5.0 | 0.00 | 0.11 | 0.00 | 95 | 1007.5 |
| 20260506042040 | 45 | 0 | 0.0 | 5.0 | 0.00 | 0.11 | 0.00 | 95 | 1007.4 |
| 20260506041555 | 45 | 26 | 2.0 | 5.0 | 0.00 | 0.11 | 0.00 | 95 | 1007.4 |
| 20260506041035 | 45 | 0 | 0.0 | 5.0 | 0.00 | 0.11 | 0.00 | 94 | 1007.5 |
| 20260506040535 | 45 | 0 | 0.0 | 5.0 | 0.00 | 0.11 | 0.00 | 94 | 1007.5 |
| 20260506040050 | 45 | 142 | 1.0 | 5.0 | 0.00 | 0.11 | 0.00 | 94 | 1007.6 |
| 20260506035538 | 45 | 140 | 2.0 | 5.0 | 0.00 | 0.14 | 0.00 | 94 | 1007.7 |
| 20260506035038 | 45 | 146 | 2.0 | 4.0 | 0.00 | 0.14 | 0.00 | 94 | 1007.6 |
| 20260506034554 | 45 | 128 | 1.0 | 4.0 | 0.00 | 0.14 | 0.00 | 94 | 1007.8 |
| 20260506034036 | 45 | 142 | 0.0 | 3.0 | 0.00 | 0.14 | 0.00 | 94 | 1007.9 |
| 20260506033539 | 45 | 0 | 0.0 | 2.0 | 0.00 | 0.14 | 0.00 | 94 | 1008.2 |
| 20260506033048 | 45 | 0 | 0.0 | 2.0 | 0.00 | 0.14 | 0.00 | 94 | 1008.2 |
| 20260506032535 | 45 | 0 | 0.0 | 2.0 | 0.00 | 0.14 | 0.00 | 94 | 1008.2 |
| 20260506032036 | 45 | 243 | 0.0 | 3.0 | 0.00 | 0.14 | 0.00 | 94 | 1008.3 |
| 20260506031546 | 45 | 0 | 0.0 | 3.0 | 0.00 | 0.14 | 0.00 | 94 | 1008.4 |
| 20260506031036 | 45 | 0 | 0.0 | 2.0 | 0.00 | 0.14 | 0.00 | 94 | 1008.5 |
| 20260506030536 | 45 | 107 | 0.0 | 2.0 | 0.00 | 0.14 | 0.00 | 94 | 1008.5 |
| 20260506030048 | 45 | 42 | 0.0 | 2.0 | 0.00 | 0.14 | 0.00 | 94 | 1008.5 |
| 20260506025535 | 45 | 0 | 0.0 | 1.0 | 0.00 | 0.14 | 0.00 | 94 | 1008.7 |
| 20260506025036 | 45 | 308 | 0.0 | 3.0 | 0.00 | 0.14 | 0.00 | 94 | 1008.8 |
| 20260506024544 | 45 | 0 | 0.0 | 3.0 | 0.00 | 0.14 | 0.00 | 94 | 1008.9 |
| 20260506024036 | 45 | 56 | 0.0 | 4.0 | 0.00 | 0.14 | 0.00 | 94 | 1009.0 |
| 20260506023536 | 45 | 0 | 0.0 | 4.0 | 0.00 | 0.14 | 0.00 | 94 | 1008.9 |
| 20260506023046 | 45 | 236 | 0.0 | 2.0 | 0.00 | 0.14 | 0.00 | 94 | 1008.9 |
| 20260506022535 | 45 | 236 | 0.0 | 2.0 | 0.00 | 0.14 | 0.00 | 94 | 1009.0 |
| 20260506022035 | 45 | 0 | 0.0 | 3.0 | 0.00 | 0.14 | 0.00 | 94 | 1009.0 |
| 20260506021548 | 45 | 0 | 0.0 | 3.0 | 0.00 | 0.14 | 0.00 | 94 | 1009.1 |
| 20260506021036 | 45 | 0 | 0.0 | 2.0 | 0.00 | 0.14 | 0.00 | 94 | 1009.1 |
| 20260506020534 | 45 | 0 | 0.0 | 2.0 | 0.00 | 0.14 | 0.00 | 94 | 1009.2 |
| 20260506020043 | 45 | 344 | 0.0 | 2.0 | 0.00 | 0.14 | 0.00 | 94 | 1009.2 |
| 20260506015537 | 45 | 0 | 0.0 | 2.0 | 0.00 | 0.14 | 0.00 | 94 | 1009.4 |
| 20260506015037 | 45 | 344 | 0.0 | 1.0 | 0.00 | 0.14 | 0.00 | 94 | 1009.4 |
| 20260506014549 | 45 | 0 | 0.0 | 2.0 | 0.00 | 0.14 | 0.00 | 94 | 1009.3 |
| 20260506014035 | 45 | 0 | 0.0 | 2.0 | 0.00 | 0.14 | 0.00 | 94 | 1009.4 |
| 20260506013535 | 45 | 0 | 0.0 | 2.0 | 0.00 | 0.14 | 0.00 | 94 | 1009.8 |
| 20260506013048 | 45 | 344 | 0.0 | 2.0 | 0.00 | 0.14 | 0.00 | 94 | 1009.9 |